Погода Лиепая

Погода Лиепая : погода сейчас, прогноз погоды и архив. Всё, что Вы хотите узнать о погоде Лиепая!

Поиск расширенной информации на нашем сайте:

Другие новости

Новости СМИ2

Главная страница сайта

Новости сайта

03.07.2017

Напоминаем, что на нашем специализированном сайте Метеоцентр.Азия вы можете получить высокодетализированные автоматические прогнозы погоды по пунктам России, СНГ и мира в авиационном формате (включающие направление и скорость ветра, видимость, явления погоды, количество и форму облачности, нижнюю и верхнюю границу облачности).


Погода Лиепая - сегодня

Время (UTC), дата Ветер
(°,м/с) 
Видим.   Явления Облачность Т
(°С)
Тd
(°С)
f(%) Тe
(°С)
Pmin
(гПа)
dP
(гПа)
Po
(мм)
O2
(г/м3)
Тmin Tmax R s Состояние
почвы
18 17.11.17 250 (З) 6{10}  10 км    4/3 600 м средняя 
[Sc|Ac trans]
+6.8 +3.5 79 +5  1015.5  -0.1  761  298    +8.5  0.3     
21 17.11.17 250 (З) 7-10{11}  10 км    8/6 800 м средняя 
[Sc|Ac trans]
+7.1 +2.5 73 +5  1015  -0.5  761  298           
00 18.11.17 240 (ЮЗ) 7-11{12}  10 км    4/3 600 м средняя 
[Sc|Ac trans]
+7.3 +2.9 74 +5  1013.7  -1.3  760  298           
03 18.11.17 240 (ЮЗ) 7-11{13}  10 км    6/0 средняя 
[Ac trans]
+7.6 +2.8 72 +5  1011.7  -2  758  296           
06 18.11.17 230 (ЮЗ) 7-11{13}  10 км    9/6 1050 м средняя, верхняя 
[Sc|Ac trans|Ci sp]
+7.5 +3.7 77 +5  1009.2  -2.5  756  295  +6.8         
09 18.11.17 240 (ЮЗ) 8-12{15}  10 км  в посл. час ливневой дождь  9/3 600 м кучево-дожд., верхняя 
[Cb calv|Ci sp]
+7.7 +3.9 77 +5  1007.3  -1.9  755  295           
12 18.11.17 210 (ЮЗ) 10-16{15}  10 км  в посл. час ливневой дождь  10/9 960 м кучево-дожд., верхняя 
[Cb calv|Ci sp]
+7.1 +4.2 82 +4  1004.6  -2.7  753  295           
15 18.11.17 210 (ЮЗ) 8-13{18}  10 км  в посл. час ливневой дождь  10/8 800 м кучево-дожд., верхняя 
[Cb calv|Ci sp]
+6.9 +3.1 77 +4  1002.2  -2.4  751  294           
18 18.11.17 210 (ЮЗ) 8-13{18}  10 км  слаб. ливневой дождь  10/10 540 м кучево-дожд. 
[Cb cap]
+5.4 +3.5 88 +2  999.7  -2.5  749  295    +8     
21 18.11.17 210 (ЮЗ) 7-12{15}  10 км  слаб. ливневой дождь  10/10 480 м кучево-дожд. 
[Cb cap]
+5.4 +4 91 +3  997.9  -1.8  748  294           
00 19.11.17 260 (З) 4{15}  10 км  в посл. час ливневой дождь  3/3 600 м 
[St]
+5.6 +1.6 75 +4  997.3  -0.6  748  295           
03 19.11.17 250 (З) 10 км    4/4 600 м 
[St]
+5.5 +1 73 +4  996.6  -0.7  747  294           
06 19.11.17 120 (ЮВ) 10 км  в посл. час ливневой дождь  10/8 570 м кучево-дожд., средняя, верхняя 
[Cb calv|Ac trans|Ci sp]
+1.9 +1.3 96 996.6  747  298  +1.9       
09 19.11.17 130 (ЮВ) 10 км  в посл. час ливневой дождь  8/6 450 м кучево-дожд., средняя, верхняя 
[Cb calv|Ac trans|Ci sp]
+2.9 +2.4 97 +2  996.2  -0.4  747  297           
12 19.11.17 130 (ЮВ) 10 км  слаб. ливневой дождь  8/8 800 м кучево-дожд. 
[Cb cap]
+4 +3.4 96 +3  995.6  -0.6  746  296           
15 19.11.17 100 (В) 10 км  слаб. ливневой дождь  10/10 630 м кучево-дожд. 
[Cb cap]
+3 +2.5 97 +2  995.8  0.2  746  296           
18 19.11.17 130 (ЮВ) 10 км  слаб. ливневой дождь  8/8 660 м кучево-дожд. 
[Cb cap]
+2.9 +2.4 97 +2  996  0.2  746  296    +4.2     
21 19.11.17 050 (СВ) 10 км  {ливн. осадки}  10/10 330 м 
[St]
+2.3 +1.8 96 +2  997.7  1.7  748  298           
00 20.11.17 040 (СВ) 10 км  {ливн. осадки}  10/10 600 м 
[Sc]
+2.1 +1.6 96 +1  999.1  1.4  749  299           
03 20.11.17 010 (С) 10 км    10/10 700 м 
[Sc]
+2.6 +0.7 87 +2  1000.5  1.4  750  298           
06 20.11.17 320 (СЗ) 10 км    8/4 600 м средняя, верхняя 
[Sc|Ac trans|Ci sp]
+0.4 -0.2 96 +1  1002  1.5  751  301  +0.4    0.0     
09 20.11.17 360 (С) 10 км    6/0 средняя, верхняя 
[Ac trans|Ci sp]
+4 +0.6 78 +5  1003.5  1.5  752  298           
12 20.11.17 010 (С) 10 км  в посл. час ливневой дождь  8/3 600 м кучево-дожд., средняя, верхняя 
[Cb calv|Ac trans|Ci sp]
+4 +1.6 84 +3  1004.5  753  299           
15 20.11.17 020 (С) 4000 м  слаб. ливневой дождь  10/10 400 м кучево-дожд. 
[Cb cap]
+3.1 +2 92 +4  1006.1  1.6  754  299           
18 20.11.17 тихо ()   10 км  {ливн. осадки}  3/0 средняя 
[Ac trans]
+0.2 -0.7 94 1007  0.9  755  303    +4.4  0.8     
Время (UTC), дата Ветер
(°,м/с) 
Видим.   Явления Облачность Т
(°С)
Тd
(°С)
f(%) Тe
(°С)
Pmin
(гПа)
dP
(гПа)
Po
(мм)
O2
(г/м3)
Тmin Tmax R s Состояние
почвы

Для получения пояснительной информации подведите курсор к названию столбца.

ПОГОДА Лиепая - архив

Всё, что Вы хотите узнать о погоде Лиепая - удобно и подробно!

Выберите нужную дату (начиная с 1 января 2015* года) и нажмите кнопку "Найти".
Будут отображены архивные сводки погоды по пункту Лиепая, начиная с указанной даты.


Отображать данные в формате CSV (для использования в таблицах Excel)


Внимание! Наш архив погоды предназначен исключительно для личного некоммерческого использования в познавательных целях. Если Вам необходимы официальные справки о состоянии погоды (для производственных, юридических, коммерческих и т.п. целей), обращайтесь в органы Росгидромета.

*Примечание: данная дата относится к архиву по метеостанциям СССР (Россия, СНГ, Балтия).
Архив по метеостанциям Зарубежной Европы и Азии (кроме Китая) хранится 10 дней, по другим регионам земного шара (Китай, Африка, Америка, Австралия, Океания) - 1 день.

Лиепая - район местоположения метеостанции


Название, широта, долгота, высота метеостанции:
Лиепая 56.5°ш. 21°д. 7 м над ур. моря [Латвия]

Дополнительная информация

В oтличие oт бoльшинства пoгoдных сайтoв мы публикуем пoдрoбную метеoинфoрмацию в детальнoм прoфессиoнальнoм фoрмате.

Характеристики температуры и влажнoсти вoздуха измеряются на высoте 2 м в тени вдали oт зданий и деревьев.
Скoрoсть ветра измеряется на высoте 10 м (на урoвне рoста челoвека скoрoсть ветра ниже в 1.5-2 раза). Если метеoстанция нахoдится в гoрoде или в лесу, тo скoрoсть ветра занижена на 2-4 м/с пo сравнению с oткрытым местoм. Скoрoсть ветра над акватoриями крупных рек и oзёр, а также на вершинах хoлмoв на 2-5 м/с выше, чем в oбычных услoвиях.
Атмoсфернoе давление в разных тoчках местнoсти мoжет значительнo oтличаться oт давления на метеoстанции, в зависимoсти oт услoвий рельефа (при пoдъёме на 10 м давление пoнижается примернo на 1 мм рт.ст.).